Full SelectorGDD

×

×
Timestep


 Change Table  View Graphs

Hourly Data for Fort Collins AERC (FTC01)

Station: Fort Collins AERCLocation: Fort Collins AERC
Lat: 40.59 °N  Lon: -105.1 °E  Elev: 5120 ft
Irrigation: part  First obs: Feb 1, 1992 01:00 
Date and TimeAir Temp
°F
RH
%
Dewpoint
°F
Solar Rad
W/m2
Liquid Precip
in
Wind
mph
Wind Dir
degrees
Gust
mph
Gust Dir
degrees
5cm Soil
°F
15cm Soil
°F
05/02/2026 23:00 49.1 29.0 18.2 0.0 0.00 0.0 0 0.0 6 58.3 60.0
05/02/2026 22:00 53.4 29.4 22.2 0.0 0.00 0.1 11 2.7 7 59.9 60.7
05/02/2026 21:00 56.9 16.1 11.2 0.4 0.00 0.8 171 3.8 163 62.1 61.2
05/02/2026 20:00 64.4 15.7 16.8 30.9 0.00 2.3 169 7.2 162 64.4 61.4
05/02/2026 19:00 69.7 10.7 12.1 208.8 0.00 4.9 163 11.1 164 66.3 61.2
05/02/2026 18:00 70.9 9.7 10.9 407.3 0.00 4.0 136 13.3 147 67.7 60.6
05/02/2026 17:00 71.1 9.2 9.8 589.0 0.00 4.8 142 13.9 153 68.3 59.6
05/02/2026 16:00 70.6 10.1 11.5 742.5 0.00 4.2 110 16.1 166 68.0 58.3
05/02/2026 15:00 69.7 11.7 14.2 856.7 0.00 5.2 138 12.8 156 66.8 56.7
05/02/2026 14:00 67.9 13.3 15.8 916.8 0.00 4.3 132 14.4 169 64.3 55.0
05/02/2026 13:00 65.9 14.4 16.0 922.0 0.00 4.0 123 12.8 154 60.9 53.4
05/02/2026 12:00 63.9 14.8 15.0 871.5 0.00 2.8 140 10.0 146 57.0 52.2
05/02/2026 11:00 60.6 17.5 16.2 770.5 0.00 3.4 141 9.4 162 53.2 51.3
05/02/2026 10:00 56.2 27.0 22.6 626.8 0.00 1.8 120 7.2 121 49.9 50.9
05/02/2026 09:00 49.8 31.7 20.9 448.5 0.00 1.7 144 6.0 135 47.6 51.0
05/02/2026 08:00 43.7 43.4 22.8 252.7 0.00 0.1 152 3.2 142 46.6 51.5
05/02/2026 07:00 33.1 62.2 21.6 65.0 0.00 0.0 180 2.1 181 46.9 52.1
05/02/2026 06:00 31.3 80.5 26.0 1.0 0.00 0.0 0 0.0 238 47.7 52.7
05/02/2026 05:00 32.3 79.6 26.7 0.0 0.00 0.0 0 0.0 238 48.7 53.4
05/02/2026 04:00 33.9 75.8 27.1 0.0 0.00 0.0 210 1.0 208 49.6 54.1
05/02/2026 03:00 36.2 67.0 26.3 0.0 0.00 0.6 125 6.6 81 50.6 54.8
05/02/2026 02:00 40.4 58.1 26.8 0.0 0.00 0.0 270 1.6 273 51.7 55.6
05/02/2026 01:00 40.9 50.2 23.8 0.0 0.00 0.0 335 2.1 298 53.0 56.4
05/02/2026 00:00 40.0 56.1 25.6 0.0 0.00 0.0 234 1.0 235 54.4 57.1
05/01/2026 23:00 43.4 49.6 25.8 0.0 0.00 0.2 289 4.4 348 56.0 57.9
05/01/2026 22:00 47.6 36.9 22.6 0.0 0.00 0.1 297 2.7 287 57.8 58.5
05/01/2026 21:00 49.8 34.8 23.1 0.5 0.00 0.0 248 1.0 248 59.9 59.0
05/01/2026 20:00 57.5 25.5 22.4 33.5 0.00 0.9 18 7.2 351 62.1 59.1
05/01/2026 19:00 60.0 21.1 20.0 133.8 0.00 4.0 13 11.6 44 64.2 58.8
05/01/2026 18:00 62.7 18.7 19.4 417.2 0.00 4.9 25 12.8 54 65.5 58.0
05/01/2026 17:00 64.3 15.1 15.8 734.5 0.00 5.3 357 13.9 285 65.3 56.9
05/01/2026 16:00 63.4 13.8 13.0 843.7 0.00 6.7 336 17.8 332 64.4 55.7
05/01/2026 15:00 61.8 13.4 11.1 863.3 0.00 7.2 355 18.3 6 63.3 54.1
05/01/2026 14:00 60.4 12.5 8.4 914.8 0.00 5.6 2 16.7 332 61.0 52.4
05/01/2026 13:00 58.6 15.9 12.3 915.3 0.00 6.1 349 15.5 342 57.8 50.9
05/01/2026 12:00 56.8 16.2 11.3 865.3 0.00 3.3 302 14.4 271 53.9 49.5
05/01/2026 11:00 54.4 19.4 13.5 765.7 0.00 4.0 322 11.1 340 50.0 48.6
05/01/2026 10:00 52.6 22.7 15.5 621.3 0.00 4.4 319 13.3 334 46.8 48.2
05/01/2026 09:00 48.2 33.1 20.5 443.2 0.00 0.8 26 4.9 301 44.3 48.2
05/01/2026 08:00 41.7 47.2 23.0 248.0 0.00 2.6 332 7.2 300 43.2 48.5
05/01/2026 07:00 36.2 64.5 25.4 61.8 0.00 1.9 311 4.9 317 43.4 48.9
05/01/2026 06:00 35.7 63.9 24.7 0.9 0.00 1.0 337 4.9 314 43.8 49.4
05/01/2026 05:00 34.1 67.1 24.4 0.0 0.00 1.0 331 3.8 343 44.4 49.9
05/01/2026 04:00 32.3 77.9 26.2 0.0 0.00 0.7 322 4.4 320 45.1 50.5
05/01/2026 03:00 30.7 86.8 27.2 0.0 0.00 0.0 0 0.0 178 45.9 51.0
05/01/2026 02:00 31.2 89.6 28.5 0.0 0.00 0.0 0 0.0 210 46.7 51.6
05/01/2026 01:00 32.5 89.4 29.7 0.0 0.00 0.0 0 0.0 218 47.7 52.2
05/01/2026 00:00 35.1 85.2 31.1 0.0 0.00 0.1 224 2.7 4 48.7 52.8
04/30/2026 23:00 37.6 79.6 31.9 0.0 0.00 0.0 0 0.0 306 49.9 53.4
04/30/2026 22:00 37.4 77.7 31.1 0.0 0.00 0.0 0 0.0 135 51.3 53.9
04/30/2026 21:00 39.7 73.7 32.0 0.4 0.00 0.0 0 0.0 226 52.9 54.2
04/30/2026 20:00 45.7 65.9 35.0 28.9 0.00 0.2 191 2.7 138 54.4 54.3
04/30/2026 19:00 48.8 45.4 28.6 118.4 0.00 0.8 164 5.5 113 55.2 54.1
04/30/2026 18:00 49.3 45.8 29.3 252.7 0.00 1.6 151 8.8 180 55.1 53.8
04/30/2026 17:00 48.6 46.1 28.8 293.7 0.00 1.9 217 8.3 179 54.4 53.5
04/30/2026 16:00 47.5 48.5 29.0 262.3 0.00 1.5 328 5.5 317 53.8 53.2
04/30/2026 15:00 46.6 50.6 29.3 259.0 0.00 1.5 338 6.0 298 53.1 52.9
04/30/2026 14:00 45.2 54.1 29.5 236.0 0.00 1.7 360 7.7 35 52.5 52.7
04/30/2026 13:00 43.3 63.1 31.6 161.5 0.00 1.1 273 7.2 300 52.1 52.5
04/30/2026 12:00 44.0 70.1 34.9 248.7 0.00 2.3 13 9.4 306 51.3 52.3
04/30/2026 11:00 43.3 59.3 30.1 166.0 0.00 2.8 21 10.0 322 50.7 52.3
04/30/2026 10:00 43.1 61.9 30.9 171.0 0.00 2.6 27 10.5 9 50.1 52.3
04/30/2026 09:00 42.6 62.6 30.7 101.1 0.00 2.3 26 8.8 351 49.8 52.5
04/30/2026 08:00 42.7 58.7 29.3 61.5 0.00 2.0 22 10.0 337 49.7 52.7
04/30/2026 07:00 41.5 56.2 27.1 13.2 0.00 0.0 21 2.1 18 49.9 53.0
04/30/2026 06:00 41.7 58.4 28.2 0.2 0.00 0.0 339 1.6 339 50.2 53.3
04/30/2026 05:00 42.5 55.3 27.6 0.0 0.00 0.7 340 7.2 310 50.7 53.7
04/30/2026 04:00 42.8 54.5 27.5 0.0 0.00 3.1 333 7.2 336 51.2 54.0
04/30/2026 03:00 43.6 53.8 28.0 0.0 0.00 3.8 336 8.3 345 51.8 54.4
04/30/2026 02:00 44.3 53.4 28.4 0.0 0.00 4.7 328 14.4 321 52.3 54.8
04/30/2026 01:00 46.3 66.1 35.6 0.0 0.00 1.7 305 7.2 312 52.9 55.1
04/30/2026 00:00 45.7 46.3 26.3 0.0 0.00 3.0 260 7.2 265 53.5 55.5
04/29/2026 23:00 46.0 64.0 34.5 0.0 0.00 4.6 316 8.8 338 54.2 55.9
04/29/2026 22:00 47.5 56.9 33.0 0.0 0.00 1.7 346 10.0 340 55.0 56.3
04/29/2026 21:00 47.6 56.9 33.1 0.1 0.00 5.3 323 13.9 303 56.1 56.6
04/29/2026 20:00 48.9 55.1 33.5 16.3 0.00 7.4 308 14.4 326 57.3 56.8
04/29/2026 19:00 52.3 47.5 33.0 84.5 0.00 6.5 353 17.2 351 58.5 56.8
04/29/2026 18:00 55.6 35.7 28.8 172.2 0.00 5.7 342 14.4 46 59.5 56.5
04/29/2026 17:00 57.1 29.0 25.2 385.8 0.00 5.1 319 12.8 286 59.6 56.0
04/29/2026 16:00 55.9 30.3 25.1 335.8 0.00 4.4 322 13.3 346 59.7 55.3
04/29/2026 15:00 56.6 32.7 27.6 489.0 0.00 3.7 135 13.9 346 58.8 54.5
04/29/2026 14:00 53.9 38.3 29.1 505.2 0.00 3.0 148 10.5 131 57.3 53.7
04/29/2026 13:00 53.0 39.0 28.7 650.0 0.00 8.8 186 16.1 168 55.0 53.0
04/29/2026 12:00 50.8 49.5 32.6 378.5 0.00 5.1 196 13.9 175 53.6 52.4
04/29/2026 11:00 51.0 47.6 31.8 344.5 0.00 1.0 22 6.0 324 52.2 51.9
04/29/2026 10:00 49.5 51.5 32.4 378.7 0.00 1.1 89 5.5 165 50.1 51.6
04/29/2026 09:00 46.6 52.2 30.0 402.3 0.00 1.9 347 7.2 345 48.0 51.8
04/29/2026 08:00 41.4 58.7 28.0 229.3 0.00 1.6 336 6.0 320 47.1 52.2
04/29/2026 07:00 34.9 74.3 27.6 54.0 0.00 0.6 327 6.0 342 47.6 52.8
04/29/2026 06:00 34.2 86.7 30.7 0.6 0.00 0.0 297 1.6 0 48.5 53.5
04/29/2026 05:00 34.9 86.9 31.4 0.0 0.00 0.0 318 2.1 318 49.5 54.1
04/29/2026 04:00 36.1 86.7 32.5 0.0 0.00 0.0 0 0.0 11 50.6 54.7
04/29/2026 03:00 38.7 81.9 33.6 0.0 0.00 0.3 333 3.2 328 51.7 55.3
04/29/2026 02:00 42.0 75.5 34.8 0.0 0.00 0.2 47 3.2 30 52.7 55.8
04/29/2026 01:00 44.1 68.3 34.3 0.0 0.00 1.9 155 5.5 166 53.4 56.4
04/29/2026 00:00 45.2 62.0 33.0 0.0 0.00 5.0 155 11.1 155 54.2 57.0
04/28/2026 23:00 46.4 59.6 33.1 0.0 0.00 4.8 177 12.2 157 55.0 57.6
04/28/2026 22:00 47.4 51.4 30.4 0.0 0.00 3.7 322 11.1 177 56.2 58.3
04/28/2026 21:00 48.5 40.8 25.7 0.3 0.00 2.7 343 8.3 328 58.0 58.9
04/28/2026 20:00 52.6 36.6 26.8 46.0 0.00 6.9 320 13.9 296 59.9 59.2
04/28/2026 19:00 55.5 25.5 20.7 204.5 0.00 9.5 309 20.0 300 61.8 59.3
04/28/2026 18:00 55.8 26.6 22.0 403.3 0.00 12.5 310 22.3 301 63.4 59.1
04/28/2026 17:00 57.9 30.3 26.9 591.8 0.00 12.7 298 22.3 295 64.4 58.4
04/28/2026 16:00 60.1 23.8 22.9 771.3 0.00 10.9 249 25.6 229 64.4 57.5
04/28/2026 15:00 59.0 22.9 21.1 885.5 0.00 14.4 268 30.1 304 63.9 56.4
04/28/2026 14:00 56.9 27.6 23.8 881.8 0.00 11.0 283 22.3 290 62.4 55.0
04/28/2026 13:00 51.6 40.8 28.6 796.3 0.00 6.8 164 22.3 255 59.9 53.7
04/28/2026 12:00 49.9 60.9 36.9 841.7 0.00 4.1 153 15.0 166 56.2 52.6
04/28/2026 11:00 44.3 70.3 35.2 667.0 0.00 2.2 137 7.2 208 52.3 52.0
04/28/2026 10:00 40.1 79.0 34.2 417.8 0.00 2.4 344 7.2 330 49.7 51.9
04/28/2026 09:00 37.2 89.8 34.5 145.8 0.00 1.2 355 6.0 341 48.8 52.1
04/28/2026 08:00 36.0 96.1 35.0 30.2 0.00 1.4 341 6.0 320 48.8 52.3
04/28/2026 07:00 35.2 97.1 34.5 15.4 0.00 0.5 130 4.9 66 49.0 52.7
04/28/2026 06:00 34.9 96.9 34.1 0.1 0.00 0.2 343 4.4 334 49.4 53.1
04/28/2026 05:00 34.9 97.1 34.2 0.0 0.00 1.8 334 4.9 326 49.9 53.5
04/28/2026 04:00 36.2 96.1 35.2 0.0 0.04 0.3 8 3.8 288 50.5 54.0
04/28/2026 03:00 35.8 95.4 34.6 0.0 0.01 0.8 152 6.0 142 51.1 54.5
04/28/2026 02:00 37.1 93.9 35.5 0.0 0.05 3.6 150 9.4 164 52.0 55.0
04/28/2026 01:00 37.5 91.4 35.2 0.0 0.02 1.2 152 6.6 127 52.8 55.5
04/28/2026 00:00 38.3 91.6 36.0 0.0 0.06 1.8 299 7.2 157 53.7 55.9
04/27/2026 23:00 38.5 93.8 36.9 0.0 0.04 4.3 311 8.8 286 54.8 56.4
04/27/2026 22:00 40.8 93.7 39.1 0.0 0.07 4.0 331 10.0 332 55.8 56.7
04/27/2026 21:00 42.3 88.8 39.3 0.0 0.05 1.9 299 4.9 295 56.8 57.0
04/27/2026 20:00 43.0 89.4 40.1 4.0 0.03 1.6 296 5.5 340 57.8 57.2
04/27/2026 19:00 44.6 83.5 39.9 13.3 0.01 1.7 343 11.1 32 58.9 57.2
04/27/2026 18:00 50.0 68.3 40.0 55.3 0.00 3.2 28 12.8 18 60.0 56.9
04/27/2026 17:00 53.2 42.7 31.1 309.0 0.00 1.8 194 13.3 196 60.0 56.6
04/27/2026 16:00 50.5 44.5 29.7 241.7 0.00 4.7 205 13.3 178 60.5 56.0
04/27/2026 15:00 51.1 50.7 33.4 353.3 0.00 9.3 161 17.8 155 60.6 55.0
04/27/2026 14:00 51.5 45.3 31.1 820.2 0.00 8.8 160 18.3 135 58.3 54.1
04/27/2026 13:00 48.9 52.9 32.5 707.3 0.00 9.5 161 18.9 186 55.9 53.5
04/27/2026 12:00 46.3 53.4 30.3 560.2 0.00 9.1 164 17.2 168 53.9 53.0
04/27/2026 11:00 44.1 54.0 28.5 450.2 0.00 9.3 162 16.7 160 52.3 52.8
04/27/2026 10:00 42.3 60.7 29.6 150.8 0.00 6.5 173 14.4 159 51.7 52.7
04/27/2026 09:00 41.2 60.9 28.7 200.8 0.00 2.1 86 10.0 52 50.9 52.6
04/27/2026 08:00 39.3 63.9 28.1 157.0 0.00 2.3 21 10.0 42 50.4 52.8
04/27/2026 07:00 38.0 72.5 29.9 29.1 0.00 1.7 33 6.6 27 50.5 52.9
04/27/2026 06:00 39.1 79.3 33.3 0.1 0.00 2.2 33 13.9 19 50.6 53.1
04/27/2026 05:00 40.2 91.2 37.8 0.0 0.00 0.0 0 0.0 288 50.8 53.2
04/27/2026 04:00 40.8 89.3 37.9 0.0 0.00 0.6 313 6.0 280 50.9 53.4
04/27/2026 03:00 39.7 90.3 37.1 0.0 0.00 1.0 314 4.9 325 50.8 53.7
04/27/2026 02:00 38.2 92.7 36.3 0.0 0.00 0.2 353 3.8 351 51.0 54.0
04/27/2026 01:00 39.6 90.8 37.2 0.0 0.00 0.1 28 3.2 15 51.5 54.3
04/27/2026 00:00 42.1 82.4 37.1 0.0 0.00 0.9 172 6.0 167 51.9 54.7
Date and TimeAir Temp
°F
RH
%
Dewpoint
°F
Solar Rad
W/m2
Liquid Precip
in
Wind
mph
Wind Dir
degrees
Gust
mph
Gust Dir
degrees
5cm Soil
°F
15cm Soil
°F